This is the latest recevied weather packets stored in our database for station/object KC1TLF-15. If no packets are shown the sender has not sent any weather packets the latest 10 day(s).
| Time | Temp. | Humidity | Pressure | Rain* | Wind** | Luminosity | Snow |
|---|---|---|---|---|---|---|---|
| 1777994471 | 26.67° C | 42% | 1017.2 hPa | 0 mm | 0.45 m/s, 318° | 695 W/m² | - |
| 1777993869 | 26.11° C | 44% | 1017.4 hPa | 0 mm | 0 m/s | 733 W/m² | - |
| 1777993270 | 24.44° C | 49% | 1017 hPa | 0 mm | 0 m/s | 327 W/m² | - |
| 1777992669 | 23.89° C | 47% | 1017.3 hPa | 0 mm | 0.45 m/s, 307° | 659 W/m² | - |
| 1777992070 | 23.89° C | 47% | 1017.3 hPa | 0 mm | 0.45 m/s, 332° | 658 W/m² | - |
| 1777991469 | 23.89° C | 50% | 1017.5 hPa | 0 mm | 0.45 m/s, 317° | 669 W/m² | - |
| 1777990869 | 23.89° C | 51% | 1017.5 hPa | 0 mm | 0 m/s | 616 W/m² | - |
| 1777989669 | 22.78° C | 53% | 1017.7 hPa | 0 mm | 0 m/s | 636 W/m² | - |
| 1777989069 | 21.67° C | 55% | 1017.5 hPa | 0 mm | 0 m/s | 558 W/m² | - |
| 1777988469 | 21.67° C | 53% | 1017.7 hPa | 0 mm | 1.79 m/s, 195° | 530 W/m² | - |
| 1777987871 | 20.56° C | 56% | 1017.7 hPa | 0 mm | 0.45 m/s, 293° | 407 W/m² | - |
| 1777987270 | 19.44° C | 60% | 1017.5 hPa | 0 mm | 0.45 m/s, 342° | 193 W/m² | - |
| 1777986670 | 16.67° C | 69% | 1017.6 hPa | 0 mm | 0 m/s | 440 W/m² | - |
| 1777986070 | 16.67° C | 69% | 1017.6 hPa | 0 mm | 0 m/s | - | - |
| 1777985470 | 17.78° C | 66% | 1017.7 hPa | 0 mm | 0 m/s | - | - |
| 1777984869 | 19.44° C | 58% | 1017.6 hPa | 0 mm | 0 m/s | - | - |
| 1777984270 | 19.44° C | 58% | 1017.6 hPa | 0 mm | 0.89 m/s, 153° | 391 W/m² | - |
| 1777983670 | 18.33° C | 60% | 1017.4 hPa | 0 mm | 0.45 m/s, 320° | 412 W/m² | - |
| 1777983070 | 16.67° C | 66% | 1017.6 hPa | 0 mm | 0 m/s | 312 W/m² | - |
| 1777982470 | 16.67° C | 67% | 1017.7 hPa | 0 mm | 0 m/s | 311 W/m² | - |
| 1777981869 | 16.11° C | 67% | 1017.6 hPa | 0 mm | 0 m/s | 173 W/m² | - |
| 1777981269 | 15.56° C | 68% | 1017.6 hPa | 0 mm | 0 m/s | - | - |
| 1777980670 | 15.56° C | 69% | 1017.4 hPa | 0 mm | 0 m/s | - | - |
| 1777980071 | 15.56° C | 68% | 1017.5 hPa | 0 mm | 0 m/s | 162 W/m² | - |
| 1777979469 | 15° C | 70% | 1017.6 hPa | 0 mm | 0 m/s | 133 W/m² | - |
* Rain latest hour (hover to see other rain measurements)
** Current wind speed in m/s (hover to see current wind gust speed)